Weather History for Albuquerque, NM

Change the Weather History Date:

Monday, December 3, 2012

  Actual Average Record
Temperature  
Mean Temperature 51 °F 38 °F  
Max Temperature 65 °F 48 °F 65 °F (1917)
Min Temperature 37 °F 28 °F 12 °F (1934)
Degree Days  
Heating Degree Days 14 27  
Month to date heating degree days 44 79  
Since 1 July heating degree days 692 946  
Cooling Degree Days 0 0  
Month to date cooling degree days 0 0  
Year to date cooling degree days 1768 1322  
Moisture  
Dew Point 24 °F    
Average Humidity 38    
Maximum Humidity 50    
Minimum Humidity 25    
Precipitation  
Precipitation 0.00 in 0.02 in 0.60 in (1904)
Month to date precipitation 0.00 0.05  
Year to date precipitation 5.34 9.00  
Snow  
Snow 0.00 in - - ()
Month to date snowfall 0.0  
Since 1 July snowfall 0.0  
Snow Depth 0.00 in    
Sea Level Pressure  
Sea Level Pressure 30.04 in    
Wind  
Wind Speed 4 mph (North)    
Max Wind Speed 15 mph    
Max Gust Speed 22 mph    
Visibility 10 miles    
Events      
T = Trace of Precipitation, MM = Missing Value Source: NWS Daily Summary

Daily Weather History Graph

Daily Weather History Graph

Search for Another Location

Airport:

Trip Planner

Search our weather history database for the weather conditions in past years. The results will help you decide how hot, cold, wet, or windy it might be!

Date:

Astronomy

Dec. 03, 2012 Rise Set
Actual Time 6:58 AM MST 4:54 PM MST
Civil Twilight 6:30 AM MST 5:22 PM MST
Nautical Twilight 5:59 AM MST 5:53 PM MST
Astronomical Twilight 5:28 AM MST 6:24 PM MST
Moon 9:37 PM MST (12/3) 10:28 AM MST (12/3)
Length of Visible Light 10h 51m
Length of Day
9h 56m
Waning Gibbous, 77% of the Moon is Illuminated
Dec 3
Waning Gibbous
Dec 6
Last Quarter
Dec 13
New
Dec 19
First Quarter
Dec 28
Full

Hourly Weather History & Observations

Time (MST) Temp. Windchill Dew Point Humidity Pressure Visibility Wind Dir Wind Speed Gust Speed Precip Events Conditions
12:52 AM 43.0 °F 41.3 °F 12.9 °F 30% 29.97 in 10.0 mi Variable 3.5 mph - N/A   Scattered Clouds
1:52 AM 41.0 °F 39.0 °F 12.0 °F 31% 29.97 in 10.0 mi NE 3.5 mph - N/A   Scattered Clouds
2:52 AM 42.1 °F - 12.9 °F 31% 29.96 in 10.0 mi Calm Calm - N/A   Partly Cloudy
3:52 AM 41.0 °F 39.0 °F 14.0 °F 33% 29.95 in 10.0 mi South 3.5 mph - N/A   Scattered Clouds
4:52 AM 39.9 °F 35.1 °F 12.9 °F 33% 29.97 in 10.0 mi ESE 6.9 mph - N/A   Clear
5:52 AM 45.0 °F 42.6 °F 19.0 °F 36% 29.99 in 10.0 mi SW 4.6 mph - N/A   Scattered Clouds
6:52 AM 44.6 °F - 19.4 °F 37% 30.12 in 10.0 mi Calm Calm - N/A   Scattered Clouds
7:52 AM 43.0 °F 40.3 °F 18.0 °F 37% 30.06 in 10.0 mi ESE 4.6 mph - N/A   Scattered Clouds
8:52 AM 50.0 °F - 21.9 °F 33% 30.04 in 10.0 mi Calm Calm - N/A   Scattered Clouds
9:52 AM 53.1 °F - 25.0 °F 34% 30.04 in 10.0 mi Calm Calm - N/A   Scattered Clouds
10:52 AM 57.0 °F - 27.0 °F 32% 30.04 in 10.0 mi East 4.6 mph - N/A   Scattered Clouds
11:52 AM 59.0 °F - 30.0 °F 33% 30.02 in 10.0 mi ENE 6.9 mph - N/A   Scattered Clouds
12:52 PM 61.0 °F - 30.9 °F 32% 30.00 in 10.0 mi Calm Calm - N/A   Scattered Clouds
1:52 PM 61.0 °F - 30.9 °F 32% 29.99 in 10.0 mi Calm Calm - N/A   Scattered Clouds
2:52 PM 64.0 °F - 28.0 °F 26% 29.98 in 10.0 mi NNW 6.9 mph 18.4 mph N/A   Scattered Clouds
3:52 PM 63.0 °F - 27.0 °F 26% 29.99 in 10.0 mi NNW 11.5 mph - N/A   Scattered Clouds
4:52 PM 60.1 °F - 25.0 °F 26% 30.03 in 10.0 mi NNW 8.1 mph - N/A   Scattered Clouds
5:52 PM 57.0 °F - 27.0 °F 32% 30.05 in 10.0 mi North 4.6 mph - N/A   Scattered Clouds
6:52 PM 55.0 °F - 28.0 °F 35% 30.07 in 10.0 mi NW 3.5 mph - N/A   Mostly Cloudy
7:52 PM 52.0 °F - 28.0 °F 40% 30.12 in 10.0 mi WNW 4.6 mph - N/A   Mostly Cloudy
8:52 PM 52.0 °F - 30.0 °F 43% 30.11 in 10.0 mi North 3.5 mph - N/A   Partly Cloudy
9:52 PM 48.9 °F - 30.9 °F 50% 30.12 in 10.0 mi Variable 3.5 mph - N/A   Clear
10:52 PM 48.0 °F - 30.9 °F 52% 30.14 in 10.0 mi North 6.9 mph - N/A   Clear
11:52 PM 48.0 °F - 30.9 °F 52% 30.14 in 10.0 mi North 6.9 mph - N/A   Clear